Location: Barcelona
(41.3830°N, 2.1830°E)
Time: 01:34:38
(UTC+02:00)

ISS - Pass Details

Date: 20 July 2019
Orbit: 409 x 418 km, 51.6° (Epoch: 23 July)

Event Time Altitude Azimuth Distance (km) Brightness Sun altitude
Rises 22:58:06 0° 264° (W) 2,349 0.6 -15.4°
Reaches altitude 10° 23:00:25 10° 278° (W) 1,487 -0.2 -15.7°
Maximum altitude 23:03:17 26° 337° (NNW) 853 -1.4 -16.0°
Drops below altitude 10° 23:06:10 10° 37° (NE) 1,487 -0.8 -16.4°
Sets 23:08:29 0° 50° (NE) 2,349 0.0 -16.7°
